Change the Weather History Date:

Monday, October 29, 2012

  Actual Average Record
Temperature  
Mean Temperature 41 °F -  
Max Temperature 50 °F 52 °F 79 °F (1937)
Min Temperature 32 °F 34 °F 10 °F (1925)
Degree Days  
Heating Degree Days 24    
Moisture  
Dew Point 27 °F    
Average Humidity 63    
Maximum Humidity 93    
Minimum Humidity 35    
Precipitation  
Precipitation 0.00 in - - ()
Sea Level Pressure  
Sea Level Pressure 30.26 in    
Wind  
Wind Speed 8 mph (NNW)    
Max Wind Speed 16 mph    
Max Gust Speed 25 mph    
Visibility 10 miles    
Events      
Averages and records for this station are not official NWS values.
T = Trace of Precipitation, MM = Missing Value Source: NWS Daily Summary

Daily Weather History Graph

Daily Weather History Graph

Search for Another Location

Airport or City:

Trip Planner

Search our weather history database for the weather conditions in past years. The results will help you decide how hot, cold, wet, or windy it might be!

Date:

Astronomy

Oct. 29, 2012 Rise Set
Actual Time 7:24 AM CDT 5:47 PM CDT
Civil Twilight 6:55 AM CDT 6:16 PM CDT
Nautical Twilight 6:21 AM CDT 6:50 PM CDT
Astronomical Twilight 5:48 AM CDT 7:23 PM CDT
Moon 5:37 PM CDT (10/29) 7:15 AM CDT (10/29)
Length of Visible Light 11h 21m
Length of Day
10h 22m
Full, 100% of the Moon is Illuminated
Oct 29
Full
Oct 29
Full
Nov 6
Last Quarter
Nov 13
New
Nov 20
First Quarter

Hourly Weather History & Observations

Time (CDT) Temp. Windchill Dew Point Humidity Pressure Visibility Wind Dir Wind Speed Gust Speed Precip Events Conditions
12:15 AM 33.8 °F 28.6 °F 26.6 °F 75% 30.30 in 10.0 mi NW 5.8 mph - N/A   Clear
12:35 AM 33.8 °F 30.8 °F 26.6 °F 75% 30.30 in 10.0 mi NW 3.5 mph - N/A   Clear
12:55 AM 33.8 °F 29.6 °F 26.6 °F 75% 30.30 in 10.0 mi NW 4.6 mph - N/A   Clear
1:15 AM 32.0 °F 27.5 °F 26.6 °F 80% 30.30 in 10.0 mi NNW 4.6 mph - N/A   Clear
1:35 AM 32.0 °F 26.4 °F 26.6 °F 80% 30.30 in 10.0 mi NNW 5.8 mph - N/A   Clear
1:55 AM 32.0 °F 26.4 °F 26.6 °F 80% 30.30 in 10.0 mi NNW 5.8 mph - N/A   Clear
2:15 AM 32.0 °F 25.6 °F 26.6 °F 80% 30.30 in 10.0 mi NNW 6.9 mph - N/A   Clear
2:35 AM 32.0 °F 24.8 °F 26.6 °F 80% 30.30 in 10.0 mi NNW 8.1 mph - N/A   Clear
3:15 AM 32.0 °F 26.4 °F 26.6 °F 80% 30.29 in 10.0 mi NNW 5.8 mph - N/A   Clear
3:35 AM 32.0 °F 26.4 °F 26.6 °F 80% 30.29 in 10.0 mi NNW 5.8 mph - N/A   Clear
3:55 AM 32.0 °F 26.4 °F 26.6 °F 80% 30.29 in 10.0 mi NNW 5.8 mph - N/A   Clear
4:15 AM 32.0 °F 27.5 °F 26.6 °F 80% 30.30 in 10.0 mi NNW 4.6 mph - N/A   Clear
4:35 AM 32.0 °F 25.6 °F 26.6 °F 80% 30.30 in 10.0 mi NNW 6.9 mph - N/A   Clear
4:55 AM 32.0 °F 25.6 °F 26.6 °F 80% 30.30 in 10.0 mi NNW 6.9 mph - N/A   Clear
5:15 AM 32.0 °F 25.6 °F 26.6 °F 80% 30.30 in 10.0 mi NNW 6.9 mph - N/A   Clear
5:35 AM 32.0 °F 26.4 °F 24.8 °F 75% 30.31 in 10.0 mi NW 5.8 mph - N/A   Clear
5:55 AM 32.0 °F 24.8 °F 24.8 °F 75% 30.31 in 10.0 mi NNW 8.1 mph - N/A   Clear
6:15 AM 32.0 °F 25.6 °F 24.8 °F 75% 30.31 in 10.0 mi NNW 6.9 mph - N/A   Clear
6:35 AM 32.0 °F 26.4 °F 24.8 °F 75% 30.31 in 10.0 mi NNW 5.8 mph - N/A   Clear
6:55 AM 32.0 °F 26.4 °F 26.6 °F 80% 30.32 in 10.0 mi NNW 5.8 mph - N/A   Clear
7:15 AM 32.0 °F 26.4 °F 26.6 °F 80% 30.32 in 10.0 mi NNW 5.8 mph - N/A   Clear
7:35 AM 32.0 °F 26.4 °F 26.6 °F 80% 30.32 in 10.0 mi NW 5.8 mph - N/A   Clear
7:55 AM 32.0 °F 25.6 °F 30.2 °F 93% 30.33 in 10.0 mi NW 6.9 mph - N/A   Clear
8:35 AM 35.6 °F 29.9 °F 32.0 °F 87% 30.32 in 10.0 mi NNW 6.9 mph - N/A   Clear
8:55 AM 37.4 °F 31.4 °F 32.0 °F 81% 30.33 in 10.0 mi NNW 8.1 mph - N/A   Clear
9:15 AM 39.2 °F 33.0 °F 32.0 °F 75% 30.32 in 10.0 mi NNW 9.2 mph - N/A   Clear
9:35 AM 41.0 °F 35.2 °F 30.2 °F 65% 30.32 in 10.0 mi NNW 9.2 mph - N/A   Clear
9:55 AM 41.0 °F 36.4 °F 30.2 °F 65% 30.31 in 10.0 mi North 6.9 mph 17.3 mph N/A   Clear
10:15 AM 42.8 °F 37.5 °F 28.4 °F 57% 30.31 in 10.0 mi North 9.2 mph 16.1 mph N/A   Clear
10:35 AM 44.6 °F 40.2 °F 28.4 °F 53% 30.30 in 10.0 mi North 8.1 mph - N/A   Clear
10:55 AM 44.6 °F 38.8 °F 24.8 °F 46% 30.30 in 10.0 mi NNE 11.5 mph 19.6 mph N/A   Clear
11:15 AM 46.4 °F 40.7 °F 23.0 °F 40% 30.30 in 10.0 mi NNE 12.7 mph - N/A   Clear
11:35 AM 46.4 °F 40.7 °F 26.6 °F 46% 30.29 in 10.0 mi NNW 12.7 mph - N/A   Clear
11:55 AM 46.4 °F 40.4 °F 23.0 °F 40% 30.28 in 10.0 mi North 13.8 mph 18.4 mph N/A   Clear
12:15 PM 46.4 °F 41.1 °F 26.6 °F 46% 30.28 in 10.0 mi North 11.5 mph - N/A   Clear
12:55 PM 48.2 °F - 24.8 °F 40% 30.27 in 10.0 mi North 13.8 mph - N/A   Clear
1:15 PM 48.2 °F - 26.6 °F 43% 30.26 in 10.0 mi North 10.4 mph - N/A   Clear
1:35 PM 50.0 °F - 23.0 °F 35% 30.25 in 10.0 mi North 11.5 mph 18.4 mph N/A   Clear
1:55 PM 50.0 °F - 24.8 °F 37% 30.25 in 10.0 mi North 11.5 mph - N/A   Clear
2:15 PM 48.2 °F - 26.6 °F 43% 30.24 in 10.0 mi North 12.7 mph 25.3 mph N/A   Scattered Clouds
2:35 PM 48.2 °F - 26.6 °F 43% 30.24 in 10.0 mi North 13.8 mph - N/A   Clear
2:55 PM 48.2 °F - 26.6 °F 43% 30.23 in 10.0 mi NNE 15.0 mph 19.6 mph N/A   Clear
3:15 PM 48.2 °F - 26.6 °F 43% 30.23 in 10.0 mi North 10.4 mph 17.3 mph N/A   Clear
3:35 PM 46.4 °F 40.4 °F 26.6 °F 46% 30.23 in 10.0 mi NNE 13.8 mph 21.9 mph N/A   Clear
3:55 PM 46.4 °F 39.8 °F 26.6 °F 46% 30.23 in 10.0 mi NNE 16.1 mph 21.9 mph N/A   Clear
4:15 PM 44.6 °F 38.1 °F 26.6 °F 49% 30.23 in 10.0 mi North 13.8 mph 19.6 mph N/A   Clear
4:35 PM 44.6 °F 39.2 °F 24.8 °F 46% 30.23 in 10.0 mi North 10.4 mph 19.6 mph N/A   Clear
4:55 PM 44.6 °F 38.4 °F 24.8 °F 46% 30.22 in 10.0 mi North 12.7 mph 20.7 mph N/A   Clear
5:15 PM 44.6 °F 38.8 °F 26.6 °F 49% 30.22 in 10.0 mi North 11.5 mph - N/A   Clear
5:35 PM 42.8 °F 37.5 °F 26.6 °F 53% 30.21 in 10.0 mi North 9.2 mph - N/A   Clear
5:55 PM 42.8 °F 38.6 °F 28.4 °F 57% 30.21 in 10.0 mi NNW 6.9 mph - N/A   Clear
6:15 PM 42.8 °F 39.3 °F 28.4 °F 57% 30.21 in 10.0 mi NNW 5.8 mph - N/A   Clear
6:35 PM 41.0 °F 37.1 °F 28.4 °F 61% 30.20 in 10.0 mi NNW 5.8 mph - N/A   Clear
6:55 PM 41.0 °F 36.4 °F 28.4 °F 61% 30.20 in 10.0 mi NNW 6.9 mph - N/A   Clear
7:15 PM 41.0 °F 36.4 °F 28.4 °F 61% 30.20 in 10.0 mi NNW 6.9 mph - N/A   Clear
7:35 PM 41.0 °F 36.4 °F 28.4 °F 61% 30.20 in 10.0 mi North 6.9 mph - N/A   Clear
10:55 PM 39.2 °F 32.5 °F 26.6 °F 61% 30.12 in 10.0 mi North 10.4 mph 17.3 mph N/A   Clear
11:15 PM 37.4 °F 29.3 °F 26.6 °F 65% 30.11 in 10.0 mi North 12.7 mph 19.6 mph N/A   Clear
11:35 PM 37.4 °F 29.3 °F 24.8 °F 60% 30.11 in 10.0 mi North 12.7 mph 17.3 mph N/A   Clear
11:55 PM 37.4 °F 29.3 °F 26.6 °F 65% 30.09 in 10.0 mi NNW 12.7 mph 19.6 mph N/A   Clear